www.pogodaiklimat.ru
ПОГОДА в Нидлсе
Время
и дата
09:56 15.07
10:56 15.07
11:56 15.07
12:56 15.07
13:56 15.07
14:56 15.07
15:56 15.07
16:36 15.07
16:51 15.07
16:56 15.07
17:07 15.07
17:56 15.07
18:56 15.07
19:23 15.07
19:56 15.07
20:56 15.07
21:56 15.07
22:56 15.07
23:56 15.07
00:56 16.07
01:56 16.07
02:56 16.07
03:56 16.07
04:56 16.07
05:56 16.07
06:56 16.07
07:56 16.07
08:56 16.07
09:56 16.07
10:56 16.07
11:56 16.07
12:56 16.07
13:56 16.07
14:56 16.07
15:56 16.07
16:56 16.07
17:56 16.07
18:56 16.07
19:56 16.07
20:56 16.07
21:56 16.07
22:56 16.07
23:56 16.07
00:56 17.07
01:56 17.07
02:56 17.07
03:56 17.07
04:56 17.07
Ветер
(напр.,м/с)
Видим. Явления Облачность Т
(С)
Тd
(С)
f
(%)
Тe
(С)
Тes
(С)
Комфортность P
(гПа)
Po
(гПа)
Тmin
(С)
Tmax
(С)
R
(мм)
R24
(мм)
S
(см)
нст 2 16 км ясно +38.9 +17.8 29 +42 +56 опасность
перегрева
1009.7 981.6 +31.7 +39.4
ЮЗ 2
{8}
16 км ясно +40.6 +17.2 26 +43 +61 опасность
перегрева
1008.9 980.6
Ю 4
{7}
16 км ясно +41.7 +15.6 22 +43 +57 опасность
перегрева
1007.9 980.0
Ю 3
{9}
16 км 2/0 3000 m
[Ac]
+42.8 +13.3 18 +43 +58 опасность
перегрева
1006.9 979.0
Ю 4 16 км 5/0 3300 m
[Ac]
+43.3 +13.3 17 +43 +51 опасность
перегрева
1005.7 977.7
нст 2 16 км 8/0 3000 m
[Ac]
+43.9 +13.3 17 +44 +51 опасность
перегрева
1004.6 976.7
Ю 5 16 км 8/0 3300 m
[Ac]
+43.9 +15.0 19 +45 +47 опасность
перегрева
1003.8 975.7 +38.9 +44.4
Ю 5
{8}
16 км гроза 8/0 3300 m
[Ac]
+43.3 +14.4 19 +44 +45 опасность
перегрева
975.7
ЮЗ 3 16 км 8/0 3300 m
[Ac]
+43.0 +13.0 17 +43 +45 опасность
перегрева
975.7
ЮЗ 2 16 км 8/0 3300 m
[Ac]
+42.8 +13.3 18 +43 +45 опасность
перегрева
1003.8 975.7
С 11
{14}
16 км гроза 8/0 3300 m
[Ac]
+41.7 +13.9 20 +42 +42 опасность
перегрева
976.0
С 5 16 км гроза ясно +36.7 +16.7 31 +39 +41 очень
душно
1005.6 977.3
С 2 16 км гроза ясно +36.7 +16.1 30 +39 +39 очень
душно
1006.0 977.7
ЮЗ 5 16 км ясно +36.7 +16.1 30 +39 +39 очень
душно
977.3
ЮЗ 3 16 км ясно +37.2 +15.0 27 +38 +38 душно 1005.6 977.3
Ю 4 16 км ясно +36.7 +15.6 29 +39 +39 очень
душно
1006.1 978.0
З 4 16 км ясно +36.1 +14.4 27 +37 +37 душно 1005.9 977.7 +35.6 +44.4
ЮЗ 6 16 км ясно +36.7 +13.9 26 +37 +37 очень
жарко
1005.7 977.7
СВ 2 16 км ясно +36.1 +14.4 27 +37 +37 душно 1005.5 977.3
СЗ 2 16 км ясно +33.3 +16.7 37 +36 +36 очень
душно
1005.3 977.3
штиль 0 16 км ясно +33.3 +15.0 33 +35 +35 душно 1005.2 977.0
Ю 3 16 км ясно +32.2 +15.6 37 +35 +35 очень
душно
1005.7 977.7
ЮЗ 4 16 км ясно +32.8 +13.9 32 +34 +34 очень
жарко
1005.8 977.7 +31.7 +36.7
штиль 0 16 км ясно +32.2 +13.3 32 +33 +33 жарко 1006.7 978.3
штиль 0 16 км ясно +33.9 +16.1 35 +37 +37 очень
душно
1007.7 979.3
СВ 3 16 км ясно +35.0 +18.3 37 +39 +41 очень
душно
1007.8 979.6
нст 2 16 км ясно +37.2 +17.8 32 +41 +46 опасность
перегрева
1007.9 979.6
СВ 2 16 км ясно +38.9 +16.7 27 +41 +50 опасность
перегрева
1007.7 979.3
нст 3 16 км ясно +41.1 +16.7 24 +43 +55 опасность
перегрева
1007.3 979.3 +31.7 +41.7
нст 3
{8}
16 км 2/0 3000 m
[Ac]
+42.2 +16.1 22 +44 +57 опасность
перегрева
1006.7 978.6
Ю 4 16 км ясно +43.3 +14.4 19 +44 +58 опасность
перегрева
1006.0 978.0
нст 2 16 км 5/0 3000 m
[Ac]
+43.3 +13.3 17 +43 +57 опасность
перегрева
1005.3 977.3
Ю 6
{11}
16 км 8/0 3000 m
[Ac]
+45.0 +12.2 15 +44 +48 опасность
перегрева
1004.1 976.4
Ю 6
{10}
16 км 10/0 3300 m
[Ac]
+45.6 +11.1 13 +44 +46 опасность
перегрева
1003.4 975.4
Ю 5
{8}
16 км 8/0 3000 m
[Ac]
+44.4 +11.1 14 +43 +46 опасность
перегрева
1002.7 974.7 +40.6 +45.6
16 км 8/0 3300 m
[Ac]
+44.4 +10.6 14 +43 +47 опасность
перегрева
1002.4 974.4
ЮЗ 4 16 км 8/0 3300 m
[Ac]
+43.9 +10.0 14 +43 +43 опасность
перегрева
1002.5 974.7
ЮЗ 4 16 км 8/0 3300 m
[Ac]
+42.8 +10.0 14 +41 +41 опасность
перегрева
1002.8 975.0
ЮЗ 4 16 км 5/0 3600 m
[Ac]
+41.7 +10.0 15 +40 +40 очень
жарко
1002.9 975.0
ЮЗ 5 16 км 2/0 3600 m
[Ac]
+40.0 +10.0 17 +39 +39 очень
жарко
1003.3 975.4
ЮЗ 6 16 км ясно +39.4 +11.7 19 +39 +39 очень
жарко
1003.2 975.4 +39.4 +45.0
ЮЗ 5 16 км ясно +38.9 +12.8 21 +39 +39 очень
жарко
1003.3 975.7
ЮЗ 3 16 км ясно +37.8 +12.2 22 +37 +37 очень
жарко
1004.2 976.4
ЮЗ 3 16 км ясно +37.2 +10.0 19 +36 +36 очень
жарко
1004.0 976.4
ЮЗ 5 16 км ясно +36.7 +7.8 17 +35 +35 очень
жарко
1004.2 976.4
ЮЗ 4 16 км ясно +35.6 +7.8 18 +34 +34 очень
жарко
1004.5 976.7
ЮЗ 4 16 км ясно +35.0 +10.6 23 +34 +34 очень
жарко
1005.3 977.3 +35.0 +39.4
ЮЗ 4 16 км ясно +33.9 +15.0 32 +36 +36 душно 1005.9 978.0
Местоположение метеостанции Needles Airport: широта 34.7661 долгота -114.6233 высота над уровнем моря 271 м.
В архиве по умолчанию представлена погода в Нидлсе за последние 1-2 суток. Обновление информации о фактической погоде в базе происходит ежечасно! Архивные данные за месяц целиком и за предыдущие месяцы Вы можете получить, выбрав интересующий диапазон дат из раскрывающегося списка и нажав кнопку "Ввод!".
Внимание! Архив погоды МЕТАР в базе сайта по станциям, не включенным в климатический монитор, хранится не более 60 дней. Нет смысла пытаться выбрать более раннюю дату.
*Определитесь, кто Вы:
Внимание! Время в таблицах - местное (без учета летнего времени). Для получения всемирного времени необходимо вычесть поправку, которая равна -8 ч.
Смотрите также архив погоды в соседних городах и на ближайших метеорологических станциях:
Партнеры нашего сайта:      
Пояснения к столбцам:
  • Ветер - указаны скорость ветра в м/с - средняя за 10 мин, порывы в срок и между сроками (в фигурных скобках) и направление, откуда дует ветер: С - северный,
  • СВ - северо-восточный, В - восточный, ЮВ - юго-восточный, Ю - южный, ЮЗ - юго-западный, З - западный, СЗ - северо-западный.
  • Видимость - горизонтальная дальность видимости в метрах или километрах. При видимости от 1 до 10 км при отсутствии осадков обычно наблюдается дымка, при ухудшении видимости до 1 км и менее - туман. В сухую погоду видимость может ухудшаться дымом, пылью или мглою.
  • Явления - указаны атмосферные явления, наблюдавшиеся в срок или в последний час перед сроком; фигурными скобками обозначены явления, наблюдавшиеся между сроками (за 1-3 часа до срока); квадратными скобками обозначены град или гололедные отложения с указанием их диаметра в мм.
  • Облачность - указаны через наклонную черту общая и нижняя облачность в баллах и высота нижней границы облаков в метрах; квадратными скобками обозначены формы облаков: Ci - перистые, Cs - перисто-слоистые, Cc - перисто-кучевые, Ac - высококучевые, As - высокослоистые, Sc - слоисто-кучевые, Ns - слоисто-дождевые, Cu - кучевые, Cb - кучево-дождевые. Подробнее классификацию облаков см. в Атласе облаков (PDF).
  • T - Температура воздуха - температура, измеренная на высоте 2 м над землей.
  • Td - Температура точки росы - температура, при понижении до которой содержащийся в воздухе водяной пар достигнет насыщения.
  • f - Относительная влажность воздуха - влажноcть воздуха, измеренная на высоте 2 м над землей.
  • Te - Эффективная температура - температура, которую ощущает одетый по сезону человек в тени. Характеристика душности погоды. При расчете учитывается влияние влажности воздуха и скорости ветра на теплоощущения человека.
  • Tes - Эффективная температура на солнце - температура, которую ощущает человек, с поправкой на солнечный нагрев. Характеристика знойности погоды. Зависит от высоты солнца над горизонтом, облачности и скорости ветра. Ночью, в пасмурную погоду, а также при ветре 12 м/с и более поправка равна нулю.
  • P - Атмосферное давление - приведенное к уровню моря атмосферное давление.
  • Po - Атмосферное давление - измеренное на уровне метеостанции атмосферное давление.
  • Tmin - Минимальная температура - минимум температуры воздуха на высоте 2 м над землей.
  • Tmax - Максимальная температура - максимум температуры воздуха на высоте 2 м над землей.
  • R - Количество осадков - Количество выпавших осадков за период времени, мм. При наведении курсора мыши на число - период времени, за который выпало указанное количество осадков.
  • R24 - Количество осадков - Количество выпавших осадков за 24 часа, мм.
  • S - Снежный покров - Высота снежного покрова, см. При наведении курсора мыши на число - состояние снежного покрова и степень покрытия местности в баллах.